This demonstration page uses our WeatherBlox Daily Observations layout. Learn more.

Left ArrowRight Arrow

36.19886, -115.1175

Hourly Observations for December 22, 2018

Temp ( °F °C ) Dew Point ( °F °C ) Humidity (%) Winds ( mph kmh ) Pressure ( in mb ) Visibility ( mi km ) Precip ( " mm )
12:53 am 00:53 Clear 46 7.8 29 -1.7 51 51 NW 6 9 30.04 1017 10 16.0934 N/A
1:53 am 01:53 Clear 46 7.8 28 -2.2 50 50 NNW 8 13 30.06 1018 10 16.0934 N/A
2:53 am 02:53 Clear 48 8.9 27 -2.8 44 44 N 9 15 30.07 1018 10 16.0934 N/A
3:53 am 03:53 Clear 45 7.2 26 -3.3 48 48 SSE 5 7 30.09 1019 10 16.0934 N/A
4:53 am 04:53 Clear 43 6.1 27 -2.8 53 53 N N/A 30.11 1020 10 16.0934 N/A
5:53 am 05:53 Clear 41 5 27 -2.8 57 57 WNW 6 9 30.14 1021 10 16.0934 N/A
6:53 am 06:53 Sunny 43 6.1 26 -3.3 51 51 NNW 6 9 30.15 1021 10 16.0934 N/A
7:53 am 07:53 Sunny 46 7.8 27 -2.8 47 47 NW 5 7 30.19 1022 10 16.0934 N/A
8:53 am 08:53 Sunny 51 10.6 28 -2.2 41 41 N 5 7 30.22 1024 10 16.0934 N/A
9:53 am 09:53 Sunny 56 13.3 27 -2.8 33 33 N 3 6 30.24 1024 10 16.0934 N/A
10:53 am 10:53 Sunny 57 13.9 28 -2.2 33 33 N N/A 30.22 1024 10 16.0934 N/A
11:53 am 11:53 Sunny 60 15.6 28 -2.2 30 30 S 5 7 30.2 1023 10 16.0934 N/A
12:53 pm 12:53 Sunny 62 16.7 28 -2.2 28 28 SE 7 11 30.19 1022 10 16.0934 N/A
1:53 pm 13:53 Sunny 62 16.7 27 -2.8 26 26 N N/A 30.19 1022 10 16.0934 N/A
2:53 pm 14:53 Sunny 63 17.2 27 -2.8 26 26 VRB 3 6 30.19 1022 10 16.0934 N/A
3:53 pm 15:53 Sunny 62 16.7 25 -3.9 24 24 N N/A 30.2 1023 10 16.0934 N/A
4:53 pm 16:53 Clear 59 15 25 -3.9 27 27 N N/A 30.2 1023 10 16.0934 N/A
5:53 pm 17:53 Clear 56 13.3 26 -3.3 32 32 N N/A 30.23 1024 10 16.0934 N/A
6:53 pm 18:53 Clear 53 11.7 27 -2.8 37 37 N N/A 30.24 1024 10 16.0934 N/A
7:53 pm 19:53 Clear 51 10.6 28 -2.2 41 41 WNW 6 9 30.24 1024 10 16.0934 N/A
8:53 pm 20:53 Clear 51 10.6 27 -2.8 39 39 WNW 5 7 30.24 1024 10 16.0934 N/A
9:53 pm 21:53 Clear 50 10 26 -3.3 39 39 W 5 7 30.24 1024 10 16.0934 N/A
10:53 pm 22:53 Clear 50 10 26 -3.3 39 39 NNW 5 7 30.24 1024 10 16.0934 N/A
11:53 pm 23:53 Clear 49 9.4 25 -3.9 39 39 NW 3 6 30.23 1024 10 16.0934 N/A

Powered by AerisWeather